Orbital Elements
The following orbital elements are taken from MPC 59599:
Epoch 2010 May 4.0 TT = JDT 2455320.5
T 2010 Apr. 19.5450 TT MPC
q 1.884078 (2000.0) P Q
n 0.1343221 Peri. 13.2067 -0.6795137 -0.7233368
a 3.776050 Node 119.7545 +0.6596309 -0.6755340
e 0.501045 Incl. 8.1222 +0.3211669 -0.1429603
P 7.34
From 1110 observations 1957-2003, mean residual 0".8. Nongravitational
parameters A1 = +0.19, A2 = -0.0149.
|